TimeCDT,TemperatureF,Dew PointF,Humidity,Sea Level PressureIn,VisibilityMPH,Wind Direction,Wind SpeedMPH,Gust SpeedMPH,PrecipitationIn,Events,Conditions,WindDirDegrees,DateUTC
12:53 AM,62.1,59.0,90,30.10,10.0,South,4.6,-,N/A,,Clear,170,2013-07-13 05:53:00
1:53 AM,63.0,57.0,81,30.11,10.0,SSE,6.9,-,N/A,,Clear,160,2013-07-13 06:53:00
2:53 AM,64.0,57.0,78,30.08,10.0,South,9.2,-,N/A,,Clear,170,2013-07-13 07:53:00
3:53 AM,62.1,57.0,84,30.10,10.0,South,5.8,-,N/A,,Clear,180,2013-07-13 08:53:00
4:53 AM,60.1,55.9,86,30.09,10.0,South,5.8,-,N/A,,Clear,180,2013-07-13 09:53:00
5:53 AM,59.0,57.0,93,30.12,9.0,SSW,3.5,-,N/A,,Clear,210,2013-07-13 10:53:00
6:53 AM,61.0,57.0,87,30.13,9.0,SSW,3.5,-,N/A,,Clear,200,2013-07-13 11:53:00
7:53 AM,64.0,57.9,80,30.14,10.0,South,5.8,-,N/A,,Clear,170,2013-07-13 12:53:00
8:53 AM,64.9,57.9,78,30.14,10.0,South,6.9,-,N/A,,Clear,190,2013-07-13 13:53:00
9:53 AM,66.0,59.0,78,30.14,10.0,South,3.5,-,N/A,,Clear,180,2013-07-13 14:53:00
10:53 AM,69.1,61.0,75,30.15,10.0,SSE,6.9,-,N/A,,Clear,160,2013-07-13 15:53:00
11:53 AM,73.9,61.0,64,30.15,10.0,South,8.1,-,N/A,,Clear,180,2013-07-13 16:53:00
12:53 PM,75.9,61.0,60,30.15,10.0,South,6.9,-,N/A,,Clear,190,2013-07-13 17:53:00
1:53 PM,77.0,62.1,60,30.15,10.0,SSW,6.9,-,N/A,,Partly Cloudy,200,2013-07-13 18:53:00
2:53 PM,77.0,61.0,58,30.13,10.0,SE,4.6,-,N/A,,Partly Cloudy,140,2013-07-13 19:53:00
3:53 PM,78.1,63.0,60,30.12,10.0,SSE,6.9,-,N/A,,Clear,160,2013-07-13 20:53:00
4:53 PM,79.0,63.0,58,30.11,10.0,SE,8.1,-,N/A,,Clear,130,2013-07-13 21:53:00
5:53 PM,79.0,63.0,58,30.11,10.0,SE,10.4,-,N/A,,Clear,130,2013-07-13 22:53:00
6:53 PM,78.1,63.0,60,30.10,10.0,SE,9.2,-,N/A,,Clear,130,2013-07-13 23:53:00
7:53 PM,75.0,62.1,64,30.10,10.0,Calm,Calm,-,N/A,,Clear,0,2013-07-14 00:53:00
8:53 PM,70.0,62.1,76,30.12,10.0,Calm,Calm,-,N/A,,Clear,0,2013-07-14 01:53:00
9:53 PM,66.9,61.0,81,30.13,10.0,SE,6.9,-,N/A,,Clear,140,2013-07-14 02:53:00
10:53 PM,66.9,61.0,81,30.13,10.0,SSE,8.1,-,N/A,,Clear,150,2013-07-14 03:53:00
11:53 PM,66.9,60.1,79,30.13,10.0,SE,6.9,-,N/A,,Clear,140,2013-07-14 04:53:00